TimeCST,TemperatureF,Dew PointF,Humidity,Sea Level PressureIn,VisibilityMPH,Wind Direction,Wind SpeedMPH,Gust SpeedMPH,PrecipitationIn,Events,Conditions,WindDirDegrees,DateUTC
12:53 AM,37.9,19.9,48,29.94,10.0,West,8.1,-,N/A,,Clear,280,2014-01-16 06:53:00
1:53 AM,41.0,21.0,45,29.96,10.0,NW,15.0,-,N/A,,Clear,320,2014-01-16 07:53:00
2:53 AM,39.0,19.9,46,29.97,10.0,NW,12.7,19.6,N/A,,Clear,310,2014-01-16 08:53:00
3:53 AM,36.0,19.9,52,30.00,10.0,NNW,13.8,-,N/A,,Clear,330,2014-01-16 09:53:00
4:53 AM,36.0,21.0,55,30.04,10.0,NNW,13.8,-,N/A,,Clear,330,2014-01-16 10:53:00
5:53 AM,37.9,21.9,53,30.02,10.0,WNW,15.0,25.3,N/A,,Scattered Clouds,290,2014-01-16 11:53:00
6:53 AM,39.9,23.0,51,30.04,10.0,WNW,18.4,27.6,N/A,,Mostly Cloudy,300,2014-01-16 12:53:00
7:53 AM,37.0,21.9,54,30.08,10.0,WNW,13.8,-,N/A,,Clear,290,2014-01-16 13:53:00
8:53 AM,39.9,21.0,47,30.09,10.0,NW,20.7,27.6,N/A,,Clear,310,2014-01-16 14:53:00
9:53 AM,43.0,18.0,37,30.11,10.0,NW,21.9,38.0,N/A,,Clear,310,2014-01-16 15:53:00
10:53 AM,45.0,15.1,30,30.11,10.0,NW,26.5,42.6,N/A,,Clear,310,2014-01-16 16:53:00
11:53 AM,46.9,10.9,23,30.08,10.0,NW,26.5,43.7,N/A,,Clear,320,2014-01-16 17:53:00
12:53 PM,48.9,7.0,18,30.06,10.0,NNW,31.1,46.0,N/A,,Mostly Cloudy,330,2014-01-16 18:53:00
1:53 PM,48.9,1.0,14,30.04,7.0,NNW,39.1,50.6,N/A,,Overcast,330,2014-01-16 19:53:00
2:53 PM,48.9,1.0,14,30.05,9.0,NNW,35.7,47.2,N/A,,Overcast,330,2014-01-16 20:53:00
3:53 PM,46.9,1.0,15,30.08,10.0,NNW,33.4,50.6,N/A,,Overcast,330,2014-01-16 21:53:00
4:53 PM,45.0,1.9,17,30.10,10.0,NNW,28.8,36.8,N/A,,Overcast,340,2014-01-16 22:53:00
5:53 PM,41.0,5.0,23,30.13,10.0,NNW,19.6,29.9,N/A,,Clear,330,2014-01-16 23:53:00
6:53 PM,36.0,8.1,31,30.18,10.0,North,12.7,-,N/A,,Clear,350,2014-01-17 00:53:00
7:53 PM,35.1,10.9,37,30.22,10.0,North,21.9,28.8,N/A,,Clear,350,2014-01-17 01:53:00
8:53 PM,33.1,12.0,42,30.23,10.0,North,25.3,34.5,N/A,,Clear,350,2014-01-17 02:53:00
9:53 PM,32.0,10.9,42,30.25,10.0,NNW,19.6,33.4,N/A,,Clear,330,2014-01-17 03:53:00
10:53 PM,30.0,10.9,45,30.27,10.0,NW,15.0,-,N/A,,Clear,320,2014-01-17 04:53:00
11:53 PM,28.9,12.0,49,30.27,10.0,NW,15.0,-,N/A,,Clear,320,2014-01-17 05:53:00